This is the latest recevied weather packets stored in our database for station/object DH9NFM-12. If no packets are shown the sender has not sent any weather packets the latest 10 day(s).
| Time | Temp. | Humidity | Pressure | Rain* | Wind** | Luminosity | Snow |
|---|---|---|---|---|---|---|---|
| 1777613382 | 9.44° C | 62% | 1026.2 hPa | 0 mm | - | - | - |
| 1777612757 | 8.89° C | 64% | 1026.2 hPa | 0 mm | - | - | - |
| 1777612132 | 8.33° C | 65% | 1026.2 hPa | 0 mm | - | - | - |
| 1777611508 | 8.33° C | 66% | 1026.2 hPa | 0 mm | - | - | - |
| 1777610883 | 7.22° C | 68% | 1026.1 hPa | 0 mm | - | - | - |
| 1777610258 | 6.67° C | 68% | 1026.1 hPa | 0 mm | - | - | - |
| 1777609634 | 6.67° C | 69% | 1026.1 hPa | 0 mm | - | - | - |
| 1777609009 | 6.67° C | 69% | 1025.9 hPa | 0 mm | - | - | - |
| 1777608385 | 6.67° C | 69% | 1025.8 hPa | 0 mm | - | - | - |
| 1777607760 | 6.67° C | 69% | 1025.9 hPa | 0 mm | - | - | - |
| 1777607135 | 6.67° C | 69% | 1025.9 hPa | 0 mm | - | - | - |
| 1777606511 | 6.11° C | 69% | 1025.9 hPa | 0 mm | - | - | - |
| 1777605886 | 6.67° C | 68% | 1025.9 hPa | 0 mm | - | - | - |
| 1777605261 | 6.11° C | 70% | 1025.9 hPa | 0 mm | - | - | - |
| 1777604636 | 6.11° C | 70% | 1026 hPa | 0 mm | - | - | - |
| 1777604012 | 6.11° C | 69% | 1026 hPa | 0 mm | - | - | - |
| 1777603387 | 6.67° C | 68% | 1025.9 hPa | 0 mm | - | - | - |
| 1777602763 | 6.11° C | 69% | 1025.9 hPa | 0 mm | - | - | - |
| 1777602138 | 6.11° C | 68% | 1026 hPa | 0 mm | - | - | - |
| 1777601513 | 6.11° C | 68% | 1026 hPa | 0 mm | - | - | - |
| 1777600889 | 6.11° C | 68% | 1026.2 hPa | 0 mm | - | - | - |
| 1777600264 | 6.67° C | 68% | 1026.1 hPa | 0 mm | - | - | - |
| 1777599639 | 7.22° C | 66% | 1026 hPa | 0 mm | - | - | - |
| 1777599015 | 7.22° C | 65% | 1025.9 hPa | 0 mm | - | - | - |
| 1777598390 | 7.78° C | 64% | 1025.9 hPa | 0 mm | - | - | - |
* Rain latest hour (hover to see other rain measurements)
** Current wind speed in m/s (hover to see current wind gust speed)